This demonstration page uses our WeatherBlox Daily Observations layout. Learn more.

Left ArrowRight Arrow

36.17497, -115.13722

Hourly Observations for March 29, 2019

Temp ( °F °C ) Dew Point ( °F °C ) Humidity (%) Winds ( mph kmh ) Pressure ( in mb ) Visibility ( mi km ) Precip ( " mm )
12:53 am 00:53 Clear 57 13.9 26 -3.3 30 30 NNE 6 9 30.03 1017 10 16 0.00 0.00
1:53 am 01:53 Clear 57 13.9 25 -3.9 29 29 N 8 13 30.04 1017 10 16 0.00 0.00
2:53 am 02:53 Clear 57 13.9 24 -4.4 28 28 Calm 30.06 1018 10 16 0.00 0.00
3:53 am 03:53 Clear 55 12.8 29 -1.7 37 37 SSE 5 7 30.06 1018 10 16 0.00 0.00
4:53 am 04:53 Clear 53 11.7 30 -1.1 41 41 Calm 30.09 1019 10 16 0.00 0.00
5:53 am 05:53 Clear 52 11.1 30 -1.1 43 43 NNW 3 6 30.11 1020 10 16 0.00 0.00
6:53 am 06:53 Sunny 54 12.2 26 -3.3 34 34 N 6 9 30.13 1020 10 16 0.00 0.00
7:53 am 07:53 Sunny 57 13.9 26 -3.3 30 30 NNW 6 9 30.15 1021 10 16 0.00 0.00
8:53 am 08:53 Sunny 61 16.1 25 -3.9 25 25 N 12 19 30.16 1021 10 16 0.00 0.00
9:53 am 09:53 Sunny 63 17.2 22 -5.6 21 21 N 13 20 30.18 1022 10 16 0.00 0.00
10:53 am 10:53 Sunny 65 18.3 20 -6.7 18 18 N 9 15 30.18 1022 10 16 0.00 0.00
11:53 am 11:53 Sunny 67 19.4 16 -8.9 14 14 NNW 12 19 30.16 1022 10 16 0.00 0.00
12:53 pm 12:53 Sunny 69 20.6 12 -11.1 11 11 N 13 20 30.14 1021 10 16 0.00 0.00
1:53 pm 13:53 Sunny 70 21.1 13 -10.6 11 11 NNE 9 15 30.12 1020 10 16 0.00 0.00
2:53 pm 14:53 Sunny 70 21.1 11 -11.7 10 10 undefined N/A 30.11 1020 10 16 0.00 0.00
3:53 pm 15:53 Sunny 71 21.7 12 -11.1 10 10 NW 10 17 30.10 1019 10 16 0.00 0.00
4:53 pm 16:53 Sunny 71 21.7 10 -12.2 9 9 NNW 14 22 30.08 1019 10 16 0.00 0.00
5:53 pm 17:53 Sunny 70 21.1 11 -11.7 10 10 N 10 17 30.08 1019 10 16 0.00 0.00
6:53 pm 18:53 Sunny 66 18.9 15 -9.4 14 14 E 9 15 30.09 1019 10 16 0.00 0.00
7:53 pm 19:53 Clear 63 17.2 16 -8.9 16 16 E 8 13 30.11 1020 10 16 0.00 0.00
8:53 pm 20:53 Clear 63 17.2 16 -8.9 16 16 ESE 7 11 30.12 1020 10 16 0.00 0.00
9:53 pm 21:53 Clear 61 16.1 18 -7.8 19 19 NW 5 7 30.14 1021 10 16 0.00 0.00
10:53 pm 22:53 Clear 58 14.4 20 -6.7 23 23 WNW 3 6 30.15 1021 10 16 0.00 0.00
11:53 pm 23:53 Clear 55 12.8 22 -5.6 28 28 N 7 11 30.15 1021 10 16 0.00 0.00

Powered by AerisWeather